Los Angeles, CA

11:50 AM PDT on September 24, 2017 (GMT -0700)
Los Angeles International

Weather History for KLAX - January, 2013

Change the Weather History Date:

Saturday, January 12, 2013

  Actual Average Record
Temperature  
Mean Temperature 50 °F 57 °F  
Max Temperature 57 °F 65 °F 87 °F (1983)
Min Temperature 42 °F 49 °F 34 °F (1949)
Degree Days  
Heating Degree Days 15 8  
Month to date heating degree days 134 107  
Since 1 July heating degree days 493 549  
Cooling Degree Days 0 0  
Month to date cooling degree days 0 0  
Year to date cooling degree days 0 0  
Moisture  
Dew Point 24 °F    
Average Humidity 33    
Maximum Humidity 45    
Minimum Humidity 20    
Precipitation  
Precipitation 0.00 in 0.09 in 1.21 in (1954)
Month to date precipitation 0.20 1.08  
Year to date precipitation 0.20 1.08  
Since 1 July precipitation 4.48  
Sea Level Pressure  
Sea Level Pressure 30.11 in    
Wind  
Wind Speed 6 mph (North)    
Max Wind Speed 14 mph    
Max Gust Speed 18 mph    
Visibility 10 miles    
Events      
T = Trace of Precipitation, MM = Missing Value Source: NWS Daily Summary

Daily Weather History Graph

Daily Weather History Graph

Search for Another Location

Airport or City:

Trip Planner

Search our weather history database for the weather conditions in past years. The results will help you decide how hot, cold, wet, or windy it might be!

Date:

Astronomy

Jan. 12, 2013 Rise Set
Actual Time 6:59 AM PST 5:05 PM PST
Civil Twilight 6:32 AM PST 5:32 PM PST
Nautical Twilight 6:01 AM PST 6:03 PM PST
Astronomical Twilight 5:31 AM PST 6:33 PM PST
Moon 7:26 AM PST (1/12) 6:33 PM PST (1/12)
Length of Visible Light 11h 00m
Length of Day
10h 06m
New Moon, 2% of the Moon is Illuminated
Jan 12
New Moon
Jan 18
First Quarter
Jan 26
Full
Feb 3
Last Quarter
Feb 9
New

Hourly Weather History & Observations

Time (PST) Temp. Windchill Dew Point Humidity Pressure Visibility Wind Dir Wind Speed Gust Speed Precip Events Conditions
12:53 AM 46.9 °F - 25.0 °F 42% 30.09 in 10.0 mi Variable 4.6 mph - N/A   Scattered Clouds
1:53 AM 46.9 °F - 25.0 °F 42% 30.10 in 10.0 mi North 9.2 mph - N/A   Mostly Cloudy
2:53 AM 46.9 °F - 24.1 °F 41% 30.09 in 10.0 mi North 4.6 mph - N/A   Scattered Clouds
3:53 AM 44.1 °F 40.1 °F 24.1 °F 45% 30.08 in 10.0 mi WSW 6.9 mph - N/A   Scattered Clouds
4:53 AM 45.0 °F 40.6 °F 23.0 °F 42% 30.08 in 10.0 mi North 8.1 mph - N/A   Clear
5:53 AM 44.1 °F 42.5 °F 23.0 °F 43% 30.11 in 10.0 mi Variable 3.5 mph - N/A   Clear
6:53 AM 44.1 °F 41.5 °F 21.9 °F 42% 30.13 in 10.0 mi ENE 4.6 mph - N/A   Scattered Clouds
7:53 AM 45.0 °F 42.6 °F 21.9 °F 40% 30.15 in 10.0 mi NE 4.6 mph - N/A   Partly Cloudy
8:53 AM 48.9 °F - 21.9 °F 35% 30.17 in 10.0 mi NE 4.6 mph - N/A   Scattered Clouds
10:53 AM 53.1 °F - 19.9 °F 27% 30.17 in 10.0 mi East 4.6 mph - N/A   Scattered Clouds
11:53 AM 53.1 °F - 19.0 °F 26% 30.14 in 10.0 mi Calm Calm - N/A   Scattered Clouds
12:53 PM 55.9 °F - 18.0 °F 23% 30.11 in 10.0 mi NE 4.6 mph - N/A   Scattered Clouds
1:53 PM 55.0 °F - 15.1 °F 21% 30.10 in 10.0 mi Calm Calm - N/A   Partly Cloudy
2:53 PM 54.0 °F - 27.0 °F 35% 30.10 in 10.0 mi WSW 11.5 mph - N/A   Scattered Clouds
3:53 PM 53.1 °F - 26.1 °F 35% 30.10 in 10.0 mi WSW 12.7 mph - N/A   Partly Cloudy
4:53 PM 52.0 °F - 27.0 °F 38% 30.11 in 10.0 mi West 12.7 mph - N/A   Partly Cloudy
5:53 PM 51.1 °F - 27.0 °F 39% 30.11 in 10.0 mi West 10.4 mph - N/A   Partly Cloudy
6:53 PM 51.1 °F - 27.0 °F 39% 30.11 in 10.0 mi Variable 6.9 mph - N/A   Partly Cloudy
7:53 PM 50.0 °F - 21.0 °F 32% 30.11 in 10.0 mi North 3.5 mph - N/A   Clear
8:53 PM 48.0 °F - 25.0 °F 41% 30.11 in 10.0 mi North 4.6 mph - N/A   Clear
9:53 PM 46.9 °F - 25.0 °F 42% 30.11 in 10.0 mi Calm Calm - N/A   Clear
10:53 PM 46.0 °F 43.9 °F 26.1 °F 46% 30.12 in 10.0 mi East 4.6 mph - N/A   Clear
11:53 PM 44.1 °F 40.1 °F 26.1 °F 49% 30.12 in 10.0 mi NE 6.9 mph - N/A   Partly Cloudy